DMSP 5D-2 F13 DEB, 40515

Orbit data source: Space-Track

DMSP 5D-2 F13 DEB, 40515 is space debris in SSO originally from a launch on Fri, 24 Mar 1995 UTC launched from the Air Force Western Test Range (AFWTR). Debris objects in space refer to the collection of defunct objects orbiting the Earth. Examples of debris include non-operational satellites, rocket bodies, and fragments generated from explosions, collisions, or faulty payload assembly.

Loading next visibility...
Identifier
40515, 1995-015DB
Orbit
SSO
Country
Flag of USUS
Related business
Manufacturer
Unknown
Mission
Spacecraft
Bus & Motor
Unknown
Mass
Unknown
Launch date (UTC)
1995-03-24 (31 years ago)
Launch vehicle
Unknown
Launch site
Air Force Western Test Range (AFWTR)
Object type
Payload
Rocket body
Debris
Shape & HBR
Unknown shape, 0.1 m
Radar Cross Section
Small (<0.1 m²)

Expand to show TLE details & history
Last TLE update: 14 hours ago

TLE from 14 hours ago
0 DMSP 5D-2 F13 DEB
1 40515U 95015DB  25349.83924763  .00004523  00000-0  15471-2 0  9994
2 40515  98.8364  20.2645 0017322 101.7884 258.5245 14.36709722555296
Epoch: 2025-12-15T20:08Z
TLE epoch observation values (Epoch: 2025-12-15T20:08:30.995Z)
Latitude
-0.00006°
Longitude
-6.59669°
Altitude
774.808 km
Speed
7.465 km/s
True Right ascension
01h 21m 03s
True Declination
0° 00' 00"
Sunlit
Object was in daylight at epoch
Visualization orbit readout
Latitude
Unknown
Longitude
Unknown
Altitude
Unknown
Speed
Unknown
Apparent Right ascension
Unknown
Apparent Declination
Unknown
Sunlit
N/A
Visualization observer readout
Local Sidereal Time
08:40:56
Azimuth
Unknown
Elevation
Unknown
Doppler factor
Unknown
Orbital elements
Apogee altitude
778.909 km
Perigee altitude
754.157 km
Semi-major axis
7,144.67 km
Eccentricity
0.00173
Inclination
98.8364°
RAAN
20.2645°
Arg. of periapsis
101.7884°
True anomaly
258.33006°
Mean anomaly
258.5245°
Eccentric anomaly
258.42727°
Mean motion
3.59393 °/min
Orbital period
100.17 mins
BSTAR
0.0015471
Loading maneuver chart data...
Computing Atmospheric mass density...

Documentation

Showing up to 5 results
|